Dewpoint
21 21 22 23 23 22 22 23 23 22 21 21 21 21 23 24 24 25 26 25 24 23 22 23 23 24 26 30 32 34 34 34 34 34 34 34 35 35 35 36 36 36 37 37 37 37 38 38 38 39 39 39 40 40 41 41 41 42 43 44 44 45 46 46 47 47 48 49 49 50 50 50 50 50 51 52 52 53 53 53 54 55 55 56 56 57
21 21 22 22 22 22 22 23 22 22 21 21 21 22 23 23 24 24 25 24 23 23 22 22 22 23 23 27 30 32 32 32 33 33 33 34 34 35 35 36 36 36 37 37 37 37 38 38 38 38 38 39 39 40 40 41 41 42 43 43 44 45 45 46 46 46 47 48 48 49 49 49 49 50 50 50 51 51 51 51 52 53 55 55 56 57
20 20 21 22 22 22 22 22 22 22 23 22 23 23 24 24 25 24 24 23 22 22 21 21 21 22 22 24 28 31 32 32 32 33 33 34 34 35 36 36 36 37 37 37 37 37 37 38 38 38 38 39 39 39 40 40 41 41 42 43 43 44 44 45 45 45 46 46 47 48 48 49 49 49 49 50 50 50 50 50 51 52 53 55 56 56
21 20 21 22 23 23 23 23 23 24 24 24 25 25 25 25 24 23 23 22 21 20 20 20 20 20 21 23 26 29 31 32 32 33 33 34 35 35 36 36 36 36 36 36 37 37 37 38 38 39 39 39 39 39 40 40 40 41 41 42 42 43 43 43 44 44 45 46 46 47 48 48 48 49 49 50 50 50 50 51 51 51 52 54 55 56
22 22 23 24 25 26 26 26 26 26 26 26 25 24 24 23 23 23 22 22 21 21 20 20 20 20 21 22 25 28 31 32 32 33 34 35 35 35 35 35 35 35 35 36 36 37 38 38 39 39 39 40 40 40 40 40 41 41 41 41 42 42 42 43 44 44 45 46 46 47 47 48 48 48 49 49 50 50 51 51 51 51 52 53 55 56
23 24 25 27 28 29 29 28 27 26 25 24 23 23 22 23 23 23 23 23 22 22 22 21 21 20 20 22 24 28 31 32 33 33 34 35 35 34 34 33 33 34 34 35 36 37 38 38 39 39 40 40 40 41 41 41 41 41 41 41 42 42 42 43 44 45 45 46 46 46 47 47 47 48 48 49 49 50 50 51 51 51 52 53 54 55
26 26 27 28 29 28 28 26 26 24 23 22 21 21 22 23 23 24 24 23 23 22 22 22 22 21 20 22 24 27 29 31 32 33 34 34 33 33 32 32 33 33 34 35 37 37 38 38 39 40 40 40 41 41 41 41 41 41 41 42 42 43 43 44 44 45 45 45 46 46 46 46 47 47 47 48 49 49 50 50 51 52 52 53 54 55
27 26 27 27 26 25 24 23 23 23 22 21 21 21 23 23 24 25 25 24 23 22 21 21 21 21 20 21 23 26 28 29 31 31 31 31 31 31 31 32 32 33 34 36 37 37 38 39 40 41 41 42 42 42 42 42 42 42 42 42 43 43 44 44 44 45 45 45 46 46 47 47 47 48 48 48 49 50 50 51 51 52 53 53 53 54
27 26 26 25 25 24 23 23 23 23 23 23 23 24 25 25 24 23 23 22 22 21 20 20 20 21 21 23 25 28 30 31 30 28 27 26 26 28 29 31 32 33 35 36 37 38 40 41 42 43 44 44 45 45 45 44 44 44 44 44 44 44 44 44 44 45 45 46 46 47 48 48 49 49 49 50 50 51 51 52 52 53 53 53 52 52
27 26 25 25 25 25 24 23 23 23 25 26 28 29 28 25 23 21 19 19 19 20 19 21 22 24 27 29 30 31 31 31 30 29 28 27 27 28 29 30 32 33 36 37 39 41 42 43 44 45 45 45 45 45 45 45 45 45 45 46 45 45 45 45 45 45 46 46 46 46 47 48 48 49 49 50 50 50 51 52 52 52 52 52 51 51
27 26 26 26 26 27 27 25 25 26 28 31 32 30 27 24 22 20 19 19 19 20 22 24 28 31 32 32 30 28 27 25 25 26 28 28 29 30 31 32 34 35 37 39 41 42 43 43 43 44 43 43 43 43 43 44 45 45 45 45 45 44 44 44 45 45 46 46 46 46 46 46 46 46 47 47 48 49 50 50 51 51 51 50 50 50
27 27 28 30 30 30 29 29 29 31 32 32 30 26 23 21 21 21 21 22 23 25 28 32 32 32 30 26 23 22 21 20 21 22 24 26 28 29 31 34 37 39 41 42 42 42 41 40 40 40 40 39 39 40 40 41 42 42 43 43 43 43 43 43 44 45 45 45 45 44 44 44 44 44 45 45 46 47 48 48 49 49 49 49 49 49
28 30 31 32 32 31 31 30 31 31 31 28 25 23 21 20 22 23 26 26 28 31 33 31 28 25 23 21 20 19 20 20 22 23 23 25 28 30 33 37 39 40 39 37 35 34 36 36 36 36 36 36 36 37 37 38 39 40 40 41 41 41 41 42 43 43 44 44 44 44 43 43 43 44 44 45 45 46 46 47 47 47 47 48 48 48
28 30 31 29 28 27 27 26 25 25 23 22 21 21 21 22 23 25 28 29 30 30 28 24 21 19 19 20 21 21 22 22 23 23 25 28 31 35 38 39 38 35 32 29 28 29 32 33 33 33 35 35 35 36 36 37 38 38 38 39 39 40 40 41 41 42 43 43 43 43 43 43 43 44 44 45 45 45 46 46 46 47 47 47 47 48
28 29 28 26 23 22 21 21 20 20 19 19 20 21 22 23 25 27 28 28 28 26 23 20 19 19 19 20 21 23 23 23 23 24 27 30 34 37 38 37 34 30 28 27 28 29 31 32 32 32 32 32 33 34 36 37 37 38 38 38 39 39 40 40 41 41 42 42 42 43 43 43 43 44 45 45 45 46 46 46 46 46 46 46 47 47
28 28 25 23 21 20 19 19 19 19 19 20 21 22 23 24 26 28 28 26 24 22 21 20 19 19 20 21 22 23 23 23 24 25 28 32 35 37 37 35 32 28 27 28 28 29 30 32 32 31 31 32 34 35 36 36 37 38 39 40 40 41 41 42 42 43 44 44 43 43 43 43 44 44 45 45 45 45 46 46 46 46 46 46 46 46
27 24 22 21 19 19 19 19 19 19 21 22 23 24 25 26 27 28 26 24 23 22 22 21 21 20 20 21 23 24 25 25 26 28 31 33 35 36 36 33 30 28 28 28 30 31 32 31 30 30 31 33 34 35 36 37 38 40 41 42 42 42 43 43 43 44 44 44 45 45 44 44 44 44 44 45 45 45 45 45 46 46 46 46 46 46
23 21 19 19 19 19 19 19 20 22 23 23 23 24 26 28 28 27 26 25 24 23 23 23 22 22 22 22 23 24 27 29 32 33 33 34 33 33 32 31 29 28 28 30 31 32 32 30 29 29 31 33 35 36 37 39 40 41 41 41 41 41 40 41 41 41 42 43 44 45 45 46 45 45 45 44 44 44 44 45 45 46 46 46 46 46
19 19 18 18 19 19 19 20 20 21 22 23 26 27 28 28 28 28 27 26 25 24 23 22 22 22 23 23 24 26 29 33 34 33 32 30 28 27 28 27 28 29 31 32 32 32 31 30 31 32 34 35 37 37 39 39 39 39 38 38 37 37 37 37 38 39 40 41 42 44 45 46 46 46 45 44 44 44 44 44 45 45 45 45 46 46
19 19 19 19 20 21 21 21 22 24 27 29 31 31 30 29 28 27 26 25 23 23 22 21 21 21 22 23 24 26 29 31 32 31 29 26 25 25 26 28 30 32 32 32 30 29 29 29 31 33 36 36 37 37 38 37 37 36 36 35 35 36 36 37 37 38 39 41 42 43 45 45 45 45 44 44 43 43 43 43 44 44 45 45 45 45
19 20 21 22 22 22 22 23 26 29 33 33 32 31 28 27 25 24 23 22 21 20 20 20 20 21 22 23 24 25 27 28 28 28 26 25 25 27 30 33 35 34 31 29 28 28 29 28 30 32 34 35 36 36 35 35 35 35 35 35 35 36 37 37 38 39 40 41 41 43 43 44 44 44 43 43 42 42 43 43 43 44 44 44 44 45
21 22 23 24 24 24 25 28 32 34 35 33 31 28 25 23 22 21 20 20 20 21 21 22 22 23 24 25 26 28 29 30 30 28 26 25 27 30 36 35 32 29 27 27 27 28 29 29 29 31 33 34 35 35 35 34 34 34 34 35 36 37 38 40 41 41 42 42 43 43 43 43 43 43 42 42 42 42 42 42 43 43 43 43 44 44
23 24 24 26 28 29 31 32 32 32 32 28 26 23 22 21 21 20 21 22 23 23 23 24 25 26 28 29 31 32 32 30 29 28 28 27 29 31 33 31 28 27 26 26 27 28 29 30 32 32 34 34 34 33 33 34 34 34 35 35 36 37 37 39 40 40 41 41 42 42 42 42 42 42 41 41 41 41 41 42 42 42 43 43 43 44
25 26 27 29 32 33 33 32 30 28 25 23 21 21 23 23 23 23 24 25 26 26 27 27 27 28 28 30 31 31 30 29 30 31 31 30 29 29 28 27 26 26 26 27 28 29 30 31 31 31 32 32 33 33 33 34 34 34 34 34 35 35 36 37 37 38 39 40 41 41 41 41 41 41 41 41 41 41 41 41 42 42 42 43 43 43
25 27 29 32 34 34 34 30 27 23 22 21 21 22 23 25 26 26 27 27 28 28 28 28 27 26 26 28 28 28 28 31 33 34 32 29 28 26 25 25 26 26 26 27 29 30 31 31 31 30 30 31 32 33 33 33 33 33 33 34 35 36 37 37 38 39 40 40 41 41 40 40 40 40 40 40 40 40 40 41 41 42 42 42 43 43
27 28 31 34 35 35 33 29 27 26 25 24 23 23 24 25 26 27 27 26 26 26 26 26 25 25 25 25 24 25 27 32 34 34 32 28 25 24 23 24 26 27 28 28 30 31 30 29 29 29 29 30 31 32 32 32 32 33 34 36 37 37 38 38 39 39 40 39 39 39 39 39 39 39 39 39 39 39 39 40 41 41 42 42 43 43
29 30 32 34 34 32 28 27 27 27 28 28 27 26 25 25 25 25 24 24 24 24 24 24 24 23 23 23 23 24 29 32 33 32 29 26 24 23 23 25 27 28 29 29 29 29 28 28 27 27 28 28 28 29 31 32 33 35 36 37 37 37 37 37 37 37 37 37 38 38 38 38 38 39 39 39 39 40 40 40 41 41 42 43 43 43
31 32 34 33 30 28 26 26 26 27 27 28 28 28 26 25 24 24 23 23 23 24 24 24 23 23 22 22 23 25 30 31 29 27 26 25 24 24 24 27 29 30 29 28 28 27 27 26 26 26 26 27 28 29 32 33 35 36 36 35 34 34 34 35 35 36 37 37 37 37 38 38 39 39 40 40 41 41 41 41 41 42 43 43 43 43
31 32 31 28 26 25 24 24 25 26 27 27 28 27 26 24 24 24 24 24 25 25 25 25 24 23 23 23 24 25 26 25 24 24 26 26 25 25 26 28 28 28 28 26 25 24 24 24 25 25 26 27 28 30 32 33 34 33 32 33 32 33 33 34 35 36 37 37 37 37 38 39 39 40 41 41 42 42 42 42 43 43 43 44 44 44
28 27 25 23 23 22 22 22 23 24 26 26 27 27 26 25 24 25 25 26 27 27 26 25 24 23 23 23 23 23 22 21 22 24 28 26 25 25 26 27 27 28 27 25 23 22 21 22 23 24 26 27 28 28 30 30 30 29 29 31 32 32 33 34 35 36 37 37 37 38 38 39 40 41 42 43 43 44 44 44 44 44 44 44 44 44
23 23 20 19 19 19 20 20 21 22 24 25 26 26 25 25 26 27 28 28 28 28 27 25 24 24 24 24 23 21 20 21 23 26 28 26 25 25 26 27 27 27 27 25 23 21 20 20 22 23 25 26 26 26 27 27 27 28 28 29 30 32 33 35 36 37 37 37 37 38 39 39 41 42 44 45 46 46 46 45 45 45 45 45 45 45
22 20 19 18 18 19 19 19 20 20 21 23 23 24 24 25 26 27 28 29 28 28 27 26 25 25 25 24 23 21 20 22 23 25 28 27 27 27 28 27 26 26 26 25 24 23 21 21 22 23 24 25 25 25 25 26 27 28 30 30 31 32 34 36 36 37 37 37 37 38 39 40 41 43 46 47 47 47 47 47 46 46 46 46 46 46
21 19 18 18 18 19 19 19 19 20 20 21 21 22 23 24 25 26 27 28 28 28 27 26 26 25 24 23 22 22 22 22 23 25 28 28 28 28 28 27 26 25 24 24 24 24 23 23 23 23 24 24 24 24 24 26 28 29 31 31 32 33 35 36 37 37 37 37 37 38 39 41 42 44 46 47 47 48 48 48 48 47 47 46 46 46
20 19 19 19 19 19 19 19 19 19 20 20 21 22 22 23 23 24 25 26 27 27 27 26 25 24 23 23 22 21 21 22 24 26 28 28 28 28 28 26 25 24 23 23 24 24 24 24 23 23 23 23 24 24 24 25 27 29 32 33 34 34 35 36 36 36 36 36 37 38 40 41 42 44 45 46 46 47 48 48 48 48 48 47 47 46
19 19 19 18 18 18 19 19 19 19 19 20 20 21 22 22 22 23 23 24 24 25 25 25 24 24 23 23 23 22 21 22 24 27 30 30 30 29 28 26 24 23 24 24 24 24 23 23 23 23 23 23 23 23 24 25 27 29 33 34 35 35 35 35 35 35 35 36 37 38 40 41 41 42 44 45 45 46 46 47 47 47 47 47 47 46
18 18 18 18 18 18 18 18 19 19 19 19 19 20 21 22 22 22 23 23 24 24 25 25 25 25 25 24 24 23 23 23 25 28 31 32 31 29 27 25 24 24 25 24 24 24 23 23 23 23 23 23 22 22 23 24 26 28 32 33 34 35 35 35 35 35 35 35 37 38 39 40 40 41 42 43 44 44 45 45 46 46 46 46 46 46
18 17 18 17 17 17 17 17 17 18 18 18 19 19 20 21 21 22 23 24 25 25 25 26 26 27 27 27 26 26 25 26 28 31 33 32 31 29 27 25 25 25 25 25 25 24 24 23 23 23 23 22 21 21 22 23 24 25 27 30 32 33 34 35 35 35 35 36 37 38 38 39 39 39 40 41 42 42 43 44 45 45 46 46 46 46
17 17 17 17 17 17 17 17 17 18 18 18 19 19 20 21 21 22 22 24 25 25 25 25 26 27 28 29 29 29 29 29 31 32 32 32 31 28 27 26 26 26 26 26 26 26 25 24 23 22 21 21 21 22 22 22 23 23 24 28 31 32 34 34 35 35 35 36 37 37 38 38 38 38 38 39 39 39 40 41 42 43 44 44 45 45
17 17 17 17 18 17 17 17 18 18 19 19 19 20 20 21 22 22 22 23 23 24 24 25 25 26 28 28 29 30 31 32 32 32 31 31 30 29 28 28 27 27 27 28 28 27 26 25 23 22 21 21 21 21 22 22 22 22 23 25 28 31 33 34 34 34 35 35 36 37 37 37 37 37 37 37 37 37 37 38 39 40 41 42 43 43
17 17 17 18 18 18 18 18 18 19 19 19 21 21 21 21 21 21 21 22 22 23 23 24 25 25 27 28 29 31 32 32 31 30 30 30 30 30 29 28 28 28 28 28 28 27 26 24 23 23 23 22 21 21 21 22 22 23 23 24 25 28 31 32 33 34 34 35 35 35 36 36 36 36 36 36 36 36 36 36 37 37 38 39 40 40
18 17 17 18 18 19 19 19 19 19 19 20 20 20 20 20 20 20 20 21 22 22 22 23 23 25 26 28 29 29 29 29 28 28 29 30 30 30 30 29 29 29 28 27 26 25 24 23 23 23 23 22 22 22 22 22 22 23 24 24 26 28 31 32 33 33 34 34 34 35 35 35 35 35 35 35 35 35 36 36 36 37 37 37 37 37
18 18 17 17 17 17 17 18 19 20 20 20 20 20 20 20 20 20 20 21 21 21 21 22 23 25 27 27 27 26 26 27 28 28 29 30 30 31 31 30 29 28 26 25 24 23 23 23 23 23 22 22 21 21 21 21 22 23 24 25 27 29 31 32 32 33 33 33 34 34 35 35 34 34 34 34 34 35 36 36 36 36 36 36 36 36
18 18 18 18 18 18 18 19 20 20 20 19 19 19 19 20 20 21 21 21 21 21 22 23 25 26 26 24 23 23 24 26 27 28 28 30 31 31 31 30 28 27 26 24 23 23 23 23 23 22 22 22 22 21 21 21 22 23 24 27 28 29 29 30 31 32 32 33 33 33 34 34 33 33 34 34 34 34 35 35 36 36 36 35 35 36
18 18 18 18 19 19 19 19 19 19 19 19 19 20 20 20 21 22 22 22 22 22 23 24 25 25 24 23 22 22 23 24 26 28 28 30 31 31 30 29 28 27 26 25 23 23 22 22 22 22 22 22 22 22 22 22 22 23 24 28 29 29 28 29 30 31 32 32 33 33 33 33 33 33 32 32 33 33 33 34 34 35 36 36 36 36
18 18 18 19 19 19 19 19 19 19 19 19 19 19 20 20 21 22 22 22 22 23 24 25 24 23 22 21 21 22 23 23 25 27 29 30 31 31 30 29 28 27 27 26 25 24 23 22 22 22 22 23 22 22 22 22 22 23 27 29 30 29 29 30 30 31 32 32 32 32 33 33 32 32 31 31 31 32 32 32 33 34 34 35 35 36
19 18 18 18 18 18 19 19 19 19 19 19 19 20 20 21 21 21 22 22 23 23 24 24 23 23 21 22 22 22 23 23 24 26 27 27 28 28 28 28 28 28 27 27 26 26 25 24 23 23 23 23 22 22 22 23 25 27 28 28 28 28 29 29 30 31 32 32 32 32 33 33 32 31 30 30 30 31 32 32 32 33 34 34 35 36
18 18 18 18 18 18 18 18 19 19 19 19 19 19 20 20 21 21 22 23 23 24 24 24 23 22 22 22 22 23 23 23 24 24 24 24 24 25 25 25 25 26 26 27 27 27 26 26 26 25 24 23 23 23 24 26 27 27 27 28 28 28 28 28 29 30 32 32 32 32 32 32 31 30 30 30 30 31 31 32 32 33 34 34 35 36
19 18 18 18 18 18 18 18 18 18 18 19 19 19 20 21 21 22 22 23 24 24 24 23 22 22 22 22 23 23 24 24 23 23 23 23 23 23 23 23 23 23 24 25 26 27 27 27 27 27 26 25 23 23 24 25 26 27 27 27 27 27 27 28 28 30 32 32 32 32 32 32 31 30 30 30 30 30 31 31 32 33 34 34 35 36
19 18 18 18 18 18 18 18 18 18 18 19 19 19 20 21 22 23 23 23 24 23 23 23 22 22 22 22 23 23 24 24 23 23 22 22 21 21 21 22 22 22 22 23 25 26 27 27 27 27 27 27 25 24 23 24 25 26 26 26 27 27 27 28 29 30 32 32 32 32 32 31 31 30 29 29 29 29 30 31 32 32 33 34 35 36
19 18 18 18 18 18 18 18 18 19 19 19 19 20 20 21 21 22 23 23 23 23 23 22 22 22 22 23 23 23 23 23 22 22 21 21 21 21 21 21 21 20 20 21 23 24 25 26 26 26 27 28 27 26 24 24 24 25 25 26 26 27 27 28 29 31 32 31 31 31 31 31 31 30 29 29 29 29 29 30 31 32 33 34 35 36
19 18 18 18 18 18 18 19 19 19 19 20 20 20 20 21 21 22 23 23 23 23 22 23 23 23 23 23 23 23 23 23 22 21 21 21 21 21 20 20 20 19 19 19 20 22 23 23 22 22 23 26 28 27 25 24 24 24 24 25 25 26 27 28 29 30 31 31 31 31 31 30 30 29 29 28 28 28 28 29 30 31 32 34 35 36